Huron, SD

1:38 PM CST on January 23, 2017 (GMT -0600)
Huron Regional

Weather History for KHON - January, 2014

Change the Weather History Date:

Thursday, January 16, 2014

  Actual Average Record
Temperature  
Mean Temperature 24 °F 16 °F  
Max Temperature 38 °F 27 °F 50 °F (1996)
Min Temperature 10 °F 6 °F -28 °F (1890)
Degree Days  
Heating Degree Days 41 49  
Month to date heating degree days 819 782  
Since 1 July heating degree days 4142 3902  
Cooling Degree Days 0 0  
Month to date cooling degree days 0 0  
Year to date cooling degree days 0 0  
Moisture  
Dew Point 13 °F    
Average Humidity 70    
Maximum Humidity 80    
Minimum Humidity 59    
Precipitation  
Precipitation 0.05 in 0.01 in 0.44 in (1897)
Month to date precipitation 0.10 0.26  
Year to date precipitation 0.10 0.26  
Snow  
Snow 0.50 in 0.20 in 4.40 in (1932)
Month to date snowfall 0.5 3.8  
Since 1 July snowfall 15.9 20.1  
Snow Depth 2.00 in    
Sea Level Pressure  
Sea Level Pressure 29.91 in    
Wind  
Wind Speed 30 mph (NNW)    
Max Wind Speed 47 mph    
Max Gust Speed 62 mph    
Visibility 6 miles    
Events Fog , Snow    
T = Trace of Precipitation, MM = Missing Value Source: NWS Daily Summary

Daily Weather History Graph

Daily Weather History Graph

Search for Another Location

Airport or City:

Trip Planner

Search our weather history database for the weather conditions in past years. The results will help you decide how hot, cold, wet, or windy it might be!

Date:

Astronomy

Jan. 16, 2014 Rise Set
Actual Time 8:04 AM CST 5:20 PM CST
Civil Twilight 7:32 AM CST 5:53 PM CST
Nautical Twilight 6:56 AM CST 6:28 PM CST
Astronomical Twilight 6:22 AM CST 7:03 PM CST
Moon 6:17 PM CST (1/16) 7:56 AM CST (1/16)
Length of Visible Light 10h 20m
Length of Day
9h 15m
Full, 100% of the Moon is Illuminated
Jan 16
Full
Jan 23
Last Quarter
Jan 30
New
Feb 6
First Quarter
Feb 14
Full

Hourly Weather History & Observations

Time (CST) Temp. Windchill Dew Point Humidity Pressure Visibility Wind Dir Wind Speed Gust Speed Precip Events Conditions
12:55 AM 37.0 °F 24.9 °F 26.1 °F 65% 29.65 in 10.0 mi WNW 27.6 mph 36.8 mph N/A   Overcast
1:55 AM 37.0 °F 25.6 °F 26.1 °F 65% 29.66 in 10.0 mi WNW 24.2 mph 34.5 mph N/A   Overcast
2:55 AM 37.0 °F 25.1 °F 27.0 °F 67% 29.67 in 10.0 mi WNW 26.5 mph 34.5 mph N/A   Overcast
3:55 AM 37.0 °F 23.7 °F 25.0 °F 62% 29.69 in 10.0 mi NW 34.5 mph 50.6 mph N/A   Overcast
4:55 AM 34.0 °F 21.0 °F 24.1 °F 67% 29.71 in 10.0 mi NNW 26.5 mph 39.1 mph N/A   Overcast
5:55 AM 34.0 °F 21.8 °F 26.1 °F 73% 29.71 in 10.0 mi NW 23.0 mph 31.1 mph 0.00 in   Overcast
6:55 AM 35.1 °F 22.7 °F 25.0 °F 67% 29.71 in 10.0 mi WNW 25.3 mph 39.1 mph N/A   Overcast
7:55 AM 34.0 °F 20.5 °F 24.1 °F 67% 29.72 in 10.0 mi WNW 28.8 mph 40.3 mph N/A   Overcast
8:55 AM 33.1 °F 18.2 °F 23.0 °F 66% 29.72 in 10.0 mi WNW 34.5 mph 43.7 mph N/A   Overcast
9:55 AM 34.0 °F 19.3 °F 24.1 °F 67% 29.73 in 10.0 mi NW 35.7 mph 47.2 mph N/A   Overcast
10:04 AM 32.0 °F 16.3 °F 24.8 °F 75% 29.74 in 0.8 mi NNW 36.8 mph 50.6 mph 0.00 in Snow Light Snow
10:09 AM 28.4 °F 13.0 °F 24.8 °F 86% 29.74 in 0.2 mi North 28.8 mph 50.6 mph 0.00 in Fog , Snow Heavy Snow
10:18 AM 26.6 °F 11.4 °F 24.8 °F 93% 29.74 in 0.2 mi NNW 25.3 mph 33.4 mph 0.00 in Fog , Snow Snow
10:22 AM 28.4 °F 14.1 °F 24.8 °F 86% 29.74 in 0.5 mi NNW 24.2 mph 32.2 mph 0.00 in Fog , Snow Light Snow
10:25 AM 28.4 °F 14.1 °F 24.8 °F 86% 29.75 in 1.2 mi NNW 24.2 mph 32.2 mph 0.00 in Snow Light Snow
10:29 AM 26.6 °F 10.8 °F 24.8 °F 93% 29.75 in 2.0 mi NNW 27.6 mph 34.5 mph 0.01 in Snow Light Snow
10:36 AM 26.6 °F 11.1 °F 23.0 °F 86% 29.76 in 1.0 mi NNW 26.5 mph 34.5 mph 0.01 in Snow Light Snow
10:50 AM 26.6 °F 8.5 °F 23.0 °F 86% 29.79 in 0.2 mi NNW 39.1 mph 50.6 mph 0.01 in Fog , Snow Light Snow
10:55 AM 21.0 °F 0.3 °F 18.0 °F 88% 29.85 in 0.2 mi North 41.4 mph 62.1 mph 0.01 in Fog Light Freezing Fog
11:03 AM 19.4 °F -1.3 °F 17.6 °F 93% 29.81 in 0.2 mi NNW 38.0 mph 48.3 mph N/A Fog Light Freezing Fog
11:14 AM 19.4 °F -2.2 °F 15.8 °F 86% 29.82 in 0.2 mi NNW 42.6 mph 50.6 mph N/A Fog Light Freezing Fog
11:31 AM 17.6 °F -5.0 °F 12.2 °F 79% 29.81 in 0.2 mi NNW 43.7 mph 56.4 mph N/A   Haze
11:50 AM 17.6 °F -5.6 °F 12.2 °F 79% 29.85 in 0.2 mi NNW 47.2 mph 55.2 mph N/A   Haze
11:55 AM 17.1 °F -5.3 °F 12.9 °F 84% 29.92 in 0.2 mi North 41.4 mph 55.2 mph N/A Fog Light Freezing Fog
12:06 PM 15.8 °F -4.4 °F 10.4 °F 79% 29.89 in 0.5 mi North 29.9 mph 50.6 mph 0.04 in   Haze
12:14 PM 14.0 °F -7.7 °F 8.6 °F 79% 29.90 in 1.0 mi North 33.4 mph 43.7 mph 0.04 in   Haze
12:23 PM 14.0 °F -8.5 °F 8.6 °F 79% 29.91 in 2.5 mi North 36.8 mph 48.3 mph 0.04 in   Haze
12:26 PM 14.0 °F -8.8 °F 8.6 °F 79% 29.91 in 3.0 mi NNW 38.0 mph 48.3 mph 0.04 in   Haze
12:55 PM 12.9 °F -11.1 °F 3.9 °F 67% 29.98 in 1.2 mi North 41.4 mph 52.9 mph 0.04 in Snow Light Snow
1:00 PM 12.2 °F -11.3 °F 3.2 °F 67% 29.93 in 1.2 mi NNW 38.0 mph 51.8 mph 0.00 in Snow Light Snow
1:05 PM 12.2 °F -9.6 °F 5.0 °F 73% 29.93 in 3.0 mi North 31.1 mph 48.3 mph 0.00 in Snow Light Snow
1:16 PM 12.2 °F -9.6 °F 5.0 °F 73% 29.94 in 5.0 mi NNW 31.1 mph 42.6 mph 0.00 in Snow Light Snow
1:20 PM 12.2 °F -9.9 °F 6.8 °F 79% 29.94 in 0.8 mi NNW 32.2 mph 42.6 mph 0.00 in Snow Light Snow
1:35 PM 12.2 °F -12.3 °F 6.8 °F 79% 29.93 in 0.2 mi NNW 42.6 mph 52.9 mph 0.00 in Snow Blowing Snow
1:55 PM 12.0 °F -11.0 °F 3.9 °F 70% 30.01 in 0.8 mi NNW 35.7 mph 46.0 mph 0.00 in Snow Blowing Snow
1:59 PM 12.2 °F -10.8 °F 5.0 °F 73% 29.95 in 2.0 mi NNW 35.7 mph 46.0 mph N/A Snow Blowing Snow
2:10 PM 12.2 °F -11.0 °F 3.2 °F 67% 29.96 in 3.0 mi NNW 36.8 mph 49.5 mph N/A Snow Blowing Snow
2:55 PM 12.9 °F -8.6 °F 3.9 °F 67% 30.05 in 10.0 mi NNW 31.1 mph 43.7 mph N/A   Overcast
3:48 PM 12.2 °F -10.2 °F 3.2 °F 67% 30.03 in 10.0 mi NNW 33.4 mph 44.9 mph N/A   Mostly Cloudy
3:55 PM 12.9 °F -7.3 °F 5.0 °F 71% 30.09 in 10.0 mi NNW 26.5 mph 44.9 mph N/A   Mostly Cloudy
4:45 PM 14.0 °F -7.4 °F 3.2 °F 62% 30.05 in 10.0 mi NNW 32.2 mph 50.6 mph N/A   Scattered Clouds
4:55 PM 12.9 °F -6.5 °F 3.9 °F 67% 30.12 in 10.0 mi NNW 24.2 mph 36.8 mph N/A   Partly Cloudy
5:09 PM 14.0 °F -8.3 °F 5.0 °F 67% 30.06 in 10.0 mi NNW 35.7 mph 43.7 mph N/A   Mostly Cloudy
5:32 PM 12.2 °F -8.9 °F 3.2 °F 67% 30.07 in 10.0 mi NNW 28.8 mph 35.7 mph N/A   Scattered Clouds
5:45 PM 14.0 °F -7.4 °F 3.2 °F 62% 30.08 in 10.0 mi NNW 32.2 mph 42.6 mph N/A   Mostly Cloudy
5:55 PM 12.9 °F -7.6 °F 3.9 °F 67% 30.14 in 10.0 mi NNW 27.6 mph 43.7 mph N/A   Scattered Clouds
6:55 PM 12.9 °F -8.9 °F 3.0 °F 65% 30.16 in 10.0 mi NNW 32.2 mph 39.1 mph N/A   Clear
7:55 PM 12.0 °F -7.3 °F 1.9 °F 64% 30.18 in 10.0 mi NNW 23.0 mph 32.2 mph N/A   Clear
8:55 PM 12.0 °F -7.7 °F 1.0 °F 61% 30.19 in 10.0 mi NNW 24.2 mph 32.2 mph N/A   Clear
9:55 PM 10.9 °F -9.2 °F 1.0 °F 64% 30.21 in 10.0 mi NNW 24.2 mph 32.2 mph N/A   Clear
10:55 PM 10.9 °F -8.8 °F -0.0 °F 61% 30.22 in 10.0 mi NNW 23.0 mph 32.2 mph N/A   Clear
11:55 PM 10.0 °F -8.1 °F -0.9 °F 61% 30.23 in 10.0 mi NNW 18.4 mph 26.5 mph N/A   Clear